Theta_e
325 322 320 318 318 317 316 315 314 311 308 306 304 302 303 302 300 299 298 298 299 299 299 298 297 298 298 298 298 298 299 301 303 304 304 303 303 306 312 316 320 320 322 323 324 324 325 325 326 325 324 321 319 320 318 317 316 316 315 314 315 315 314 314 313 313 313 313 313 313 312 313 312 312 314 313 313 313 314 313 313 314 314 314 314
326 322 320 318 317 317 316 315 313 310 307 304 304 302 301 300 299 299 298 298 298 298 297 296 296 296 296 295 296 296 296 297 299 301 302 302 302 303 307 311 317 318 319 320 321 323 323 323 324 323 323 321 319 318 316 315 315 315 315 314 314 314 313 313 313 312 312 312 312 312 311 311 312 311 312 313 312 312 313 312 311 313 313 313 313
327 323 321 319 318 317 316 315 312 310 307 304 303 301 301 300 299 298 298 298 297 297 296 295 294 294 294 294 294 294 294 294 295 296 298 299 300 301 302 306 311 316 316 317 318 320 319 321 321 321 321 320 319 319 317 315 314 314 314 314 313 314 313 312 312 313 312 311 311 310 311 311 311 310 310 311 311 311 310 311 312 312 311 311 312
328 325 321 319 318 317 316 313 311 309 306 304 302 301 301 300 300 299 298 297 296 296 296 294 293 293 293 293 293 293 293 293 293 293 294 295 296 297 298 300 304 309 313 314 316 316 317 318 318 318 319 318 318 317 316 315 314 313 313 313 313 313 313 312 312 312 311 310 310 310 310 310 310 309 309 310 310 310 310 309 310 311 310 311 312
329 325 320 319 317 316 314 311 309 307 306 304 302 301 299 299 299 299 298 297 296 295 296 293 292 292 292 292 292 292 292 292 292 292 292 292 293 293 294 295 296 301 306 310 312 313 314 314 314 314 315 315 316 316 316 314 313 313 314 313 313 313 314 313 312 312 311 311 311 310 310 311 310 310 310 310 310 310 309 309 310 311 310 310 311
329 324 320 318 316 315 312 310 308 306 304 302 300 299 298 298 297 297 298 295 294 294 293 291 291 291 291 291 291 291 291 291 290 290 291 291 291 291 291 290 291 293 296 304 308 310 311 312 312 312 312 312 312 313 313 313 313 313 314 313 313 313 313 312 312 312 312 311 310 310 309 309 309 309 309 309 309 309 309 310 310 310 310 310 310
328 322 319 317 316 313 311 309 307 304 303 301 299 299 298 297 297 295 295 294 294 293 292 291 291 290 290 291 290 291 290 290 290 290 290 290 290 290 290 289 288 289 291 292 299 303 305 307 310 310 310 311 311 312 312 313 314 314 313 314 313 313 312 311 311 310 310 310 309 308 308 308 308 308 308 308 308 308 309 309 308 308 309 309 309
325 322 319 318 316 312 310 308 306 304 303 301 299 298 298 297 296 296 294 293 293 291 291 291 291 290 290 289 289 290 289 289 290 290 290 290 290 290 290 290 289 288 290 289 292 296 300 302 305 307 308 309 310 310 312 313 313 313 312 313 312 311 310 310 310 310 309 308 308 307 307 307 307 308 307 308 308 308 308 308 307 308 308 308 308
325 323 320 318 315 312 310 307 305 303 302 300 299 299 298 298 296 296 294 293 292 291 290 290 290 290 290 289 289 290 289 289 289 290 291 289 288 289 290 290 291 293 289 288 289 292 297 297 299 301 304 305 307 309 310 312 313 313 312 311 311 311 309 309 309 308 307 307 307 306 306 306 306 307 307 307 307 307 307 307 307 308 308 308 307
326 323 320 318 315 312 309 307 305 303 301 300 298 298 299 298 296 296 294 293 291 290 290 290 291 290 289 289 289 289 289 289 290 291 289 289 289 289 289 289 289 289 290 289 289 289 289 294 295 296 297 301 305 307 309 310 310 311 311 310 310 309 308 308 307 307 306 306 306 306 305 305 306 306 306 306 306 306 307 307 307 307 307 308 307
325 322 320 317 315 312 309 306 305 302 301 300 299 298 297 297 295 294 294 292 291 291 291 291 290 290 289 289 289 289 289 290 290 289 288 289 290 291 290 289 289 289 289 289 288 288 288 287 286 286 289 296 300 303 305 307 307 308 309 309 309 309 307 307 307 306 306 306 305 305 305 305 306 306 306 306 306 306 306 306 307 307 307 307 307
325 323 320 317 314 311 308 306 304 303 301 299 298 297 296 295 294 293 292 292 292 291 291 289 289 288 288 288 288 289 289 289 289 289 289 288 288 288 288 288 288 288 288 289 288 288 287 287 287 285 286 290 295 297 300 302 302 305 306 308 308 308 306 305 305 306 305 305 305 305 305 304 305 305 305 305 305 305 306 306 307 307 307 307 307
323 321 318 314 313 310 308 306 305 303 301 300 299 298 297 295 294 293 291 290 290 290 289 288 287 286 286 286 287 289 290 289 288 288 288 287 287 287 287 287 287 287 287 288 287 287 286 286 285 285 284 284 286 292 294 296 299 302 304 305 307 307 307 306 305 305 305 304 304 304 305 304 305 305 305 305 305 305 306 306 307 307 307 307 307
319 319 317 315 312 309 307 306 305 304 302 300 298 297 296 295 294 293 292 291 290 290 289 288 286 283 283 284 285 286 288 287 288 288 288 288 288 288 288 288 287 287 287 287 287 286 286 286 285 285 284 284 284 284 286 287 291 298 301 302 305 306 306 306 306 305 304 304 304 304 304 304 304 304 305 305 305 305 306 306 306 307 307 307 306
318 316 316 314 312 310 308 307 306 304 301 299 297 296 295 295 294 292 290 290 290 291 289 288 285 285 285 283 281 282 287 285 286 286 287 287 287 287 287 287 287 287 287 286 286 286 286 285 285 284 284 284 283 284 285 288 288 292 296 298 299 303 305 305 305 304 304 304 304 303 304 303 304 303 304 304 304 305 305 305 306 306 306 306 306
316 315 314 313 312 311 309 307 306 304 301 298 296 295 295 294 294 293 292 289 289 289 290 291 288 286 282 285 282 282 279 281 282 285 286 286 287 287 287 287 287 287 286 286 286 285 285 285 284 284 284 283 283 283 285 285 288 289 290 294 297 299 302 304 304 304 304 304 303 302 303 303 303 303 304 304 304 304 305 305 305 305 305 305 305
314 314 313 313 312 310 309 307 305 303 301 298 296 296 295 295 294 293 292 290 289 289 290 294 290 290 288 285 283 284 282 282 282 282 284 284 285 286 287 286 286 286 285 285 285 285 285 284 284 284 283 283 283 282 283 284 284 286 286 293 296 297 297 301 303 303 304 303 303 302 302 302 302 303 303 303 304 304 305 305 304 304 305 305 305
311 311 311 311 310 309 308 306 304 302 301 299 297 296 295 295 295 294 293 292 291 289 289 293 294 294 293 292 290 286 283 282 282 278 283 285 284 285 285 286 286 286 286 285 284 285 286 285 284 284 283 282 282 281 281 283 286 283 285 291 297 297 297 298 301 302 302 302 302 302 302 302 301 302 302 303 303 303 304 304 304 304 304 304 304
310 310 309 309 309 308 307 305 304 303 300 299 297 296 296 295 296 295 294 294 293 290 290 291 292 292 294 292 291 292 285 283 281 280 278 282 283 283 284 286 285 285 285 285 285 285 285 285 283 282 282 282 281 281 281 283 285 285 289 293 296 296 296 296 296 297 299 300 301 301 302 301 300 301 301 302 302 302 303 303 303 303 303 303 304
307 308 309 308 308 307 306 305 303 302 300 299 298 298 297 297 296 295 295 295 293 291 290 291 291 290 290 290 289 287 287 288 285 281 280 278 279 283 284 284 284 284 285 284 284 283 283 282 282 281 281 282 281 281 281 281 281 281 283 292 295 295 295 296 295 295 296 297 298 300 300 300 300 301 301 301 302 302 302 302 302 302 303 303 303
303 304 307 308 306 307 306 304 303 302 300 300 300 298 297 296 295 295 295 295 294 293 291 291 290 289 289 289 289 288 288 287 286 286 280 279 279 279 280 283 283 283 284 283 283 283 282 282 283 282 283 282 281 281 281 280 280 280 285 290 293 294 295 295 294 294 294 294 296 297 299 299 300 300 300 301 301 302 302 301 302 302 302 303 302
300 301 303 305 306 306 305 304 303 302 300 301 300 298 298 297 296 296 296 295 294 294 292 290 291 290 290 288 288 286 284 284 286 284 283 282 280 279 280 280 279 280 282 282 282 282 282 282 282 281 281 280 280 280 279 279 280 281 284 287 290 291 293 293 294 294 294 294 294 294 296 297 297 299 299 300 301 301 301 301 301 301 302 302 302
299 300 301 302 304 305 305 304 303 301 300 301 300 299 299 298 297 296 296 295 294 294 294 292 292 290 289 288 288 288 285 283 283 283 280 280 279 279 279 279 279 279 280 282 282 282 282 282 281 280 280 280 279 279 279 279 284 284 284 285 287 289 290 292 293 293 293 293 293 293 294 294 295 297 298 299 299 300 300 300 300 300 301 301 301
297 298 299 301 302 303 304 304 303 302 301 302 301 300 300 298 297 297 296 294 294 295 293 292 290 290 289 288 287 287 286 285 285 285 283 282 281 280 279 279 280 279 282 281 282 281 281 281 280 280 280 279 279 280 281 280 281 284 282 283 286 287 288 290 292 292 292 292 292 292 293 293 294 295 295 296 298 299 299 299 299 299 300 300 300
295 296 298 300 301 302 302 303 303 302 302 302 301 301 301 300 297 297 296 295 295 294 292 291 290 289 287 287 287 288 286 286 286 285 283 283 282 280 280 281 278 279 280 280 279 280 281 280 280 280 279 279 281 279 279 279 279 283 284 282 285 286 286 286 289 291 291 291 291 292 292 292 293 294 294 295 296 297 297 297 298 298 299 299 299
294 296 297 299 299 301 302 303 303 302 302 302 302 301 300 299 298 297 296 294 293 291 290 289 289 287 287 286 286 285 285 286 285 284 283 283 282 282 281 281 279 279 279 279 278 279 279 280 280 280 279 279 279 279 278 279 279 283 283 281 282 285 285 286 288 290 290 290 291 291 291 291 292 292 292 293 294 294 296 296 296 297 297 298 298
295 296 296 297 298 300 301 302 302 301 301 301 300 300 299 298 297 295 293 291 290 290 288 287 288 286 286 286 285 285 284 285 283 284 284 283 283 282 281 279 277 277 278 278 278 277 278 278 279 279 279 279 278 278 278 277 281 283 282 278 277 283 284 286 287 289 290 290 290 290 291 291 291 291 291 291 292 292 294 295 295 295 295 295 295
296 296 296 297 297 299 299 300 300 299 300 299 299 298 297 296 293 291 289 290 288 287 286 287 286 286 285 285 284 283 284 283 283 283 282 282 282 281 280 280 278 275 277 277 277 278 279 278 279 278 279 279 279 278 282 281 279 283 281 277 277 279 283 285 287 289 289 289 289 289 290 290 290 290 290 290 290 290 291 291 291 291 291 291 291
296 296 295 296 297 297 298 298 298 298 298 298 297 296 294 292 290 288 287 286 287 287 286 286 286 285 284 283 283 283 282 281 281 282 282 281 281 279 279 279 279 276 275 274 276 277 279 278 277 279 279 279 279 279 279 277 281 280 278 277 277 276 282 285 286 288 287 288 288 288 289 290 289 290 290 290 290 290 291 291 291 291 291 291 291
296 295 294 295 295 294 296 296 296 297 296 295 294 292 291 289 288 287 287 287 286 286 286 286 285 284 283 282 282 281 281 280 281 280 280 280 280 280 278 279 279 278 276 274 275 278 278 279 278 278 278 278 279 279 278 277 284 279 278 276 276 277 282 284 285 286 286 287 287 287 288 289 289 289 289 289 289 290 290 290 290 290 290 290 290
295 294 293 293 293 293 294 293 292 293 293 292 291 289 288 287 286 286 286 286 286 285 285 285 284 283 282 282 281 280 280 281 281 280 280 280 280 279 278 280 279 278 278 275 274 277 277 278 278 278 278 277 278 278 279 278 281 280 277 276 276 281 282 282 283 284 285 285 285 286 287 288 289 288 288 288 289 289 289 289 289 289 289 289 289
294 293 292 292 292 292 291 290 290 290 289 289 289 287 287 286 285 285 285 285 285 285 284 284 284 283 282 281 281 281 281 281 280 280 280 280 279 279 279 279 278 278 278 276 274 274 278 278 277 277 278 278 278 277 276 278 281 283 276 277 277 281 279 278 282 283 283 284 285 286 286 287 288 288 288 287 288 288 288 288 289 288 288 288 288
292 292 291 291 291 290 289 289 289 289 288 287 287 287 286 285 285 285 285 285 285 284 284 283 283 282 282 282 282 281 281 280 280 279 279 279 279 279 279 279 278 277 277 275 275 274 277 277 278 277 277 277 276 276 276 276 276 277 280 277 277 277 277 277 277 282 283 284 285 285 286 287 287 287 287 287 287 287 287 288 288 287 287 287 287
291 291 291 291 290 290 289 289 288 288 288 287 287 286 285 285 285 286 285 284 284 283 283 283 282 282 282 282 281 280 280 279 279 279 278 278 278 278 278 278 277 277 276 277 274 274 274 276 276 277 277 277 274 276 276 276 275 276 276 276 277 277 277 277 277 277 282 283 284 285 285 286 286 286 286 286 286 287 287 288 287 286 286 286 285
290 291 290 290 290 289 289 288 287 287 287 287 286 286 286 285 285 285 285 284 283 283 282 282 282 282 281 281 280 280 280 279 278 278 278 277 278 278 278 277 277 277 276 275 275 274 273 274 275 276 276 276 275 275 276 276 276 276 275 276 276 278 278 277 277 278 282 283 284 285 285 285 285 285 285 285 285 286 286 286 286 285 285 285 284
290 290 290 289 289 288 288 287 287 287 287 286 286 286 285 285 285 284 284 283 283 283 282 281 281 281 280 280 279 279 279 278 278 277 277 277 278 278 277 276 276 276 276 275 275 274 274 274 274 275 275 275 275 275 276 277 275 275 276 276 276 276 277 278 277 277 280 283 284 284 284 284 284 284 284 284 285 285 285 285 285 285 285 284 283
290 289 289 288 288 288 287 287 286 286 286 286 286 285 285 285 285 284 283 282 282 282 281 281 282 281 280 280 279 279 278 277 277 277 277 277 278 278 277 277 276 276 276 276 275 274 274 275 274 275 275 275 275 274 275 275 274 275 275 275 276 276 276 277 278 279 282 283 283 283 283 283 283 283 283 284 284 284 285 284 284 284 283 283 282
289 289 288 287 287 287 287 286 286 286 286 286 286 285 284 284 284 283 283 282 281 281 281 281 281 280 280 279 279 278 278 278 277 277 277 278 278 277 276 276 276 276 276 276 275 275 275 274 274 274 274 274 274 274 274 275 274 274 274 274 274 275 276 276 277 278 278 278 277 277 280 280 281 282 282 282 283 284 283 283 283 283 282 281 281
289 288 287 287 287 287 286 286 285 285 286 285 285 285 284 283 283 282 282 281 281 280 280 280 280 280 280 279 279 279 279 278 278 278 278 278 278 277 276 277 276 276 276 275 275 275 275 274 273 274 274 274 274 273 274 275 275 274 273 273 274 275 275 275 275 276 277 277 280 281 280 280 280 279 281 282 282 282 282 282 282 281 281 280 281
288 288 287 287 286 286 286 285 285 285 285 284 284 284 283 283 282 282 281 281 280 280 279 279 279 279 279 279 279 279 279 279 279 279 279 278 279 277 277 277 276 276 276 275 275 275 274 274 273 272 274 274 274 274 274 274 273 273 275 274 273 273 274 274 274 274 275 276 275 275 278 279 279 279 280 280 280 281 281 280 280 280 279 280 281
288 288 287 287 286 285 285 284 284 284 284 284 284 283 283 282 282 281 281 281 280 279 278 278 278 279 279 279 279 279 280 281 282 282 282 282 279 278 277 277 277 276 276 275 275 274 273 273 273 274 273 274 274 274 273 273 273 273 274 275 274 274 273 273 273 274 275 274 274 274 273 274 274 274 274 273 274 277 277 279 278 278 278 280 282
288 287 287 286 285 285 284 283 283 283 283 284 284 286 285 283 282 282 281 280 280 279 279 278 278 278 279 279 280 281 282 282 283 284 284 284 283 281 279 278 277 276 276 275 275 274 274 272 273 273 273 273 273 274 274 274 274 274 274 274 273 272 272 272 273 273 275 275 273 271 272 274 273 272 273 272 273 276 275 275 274 277 279 281 282
287 286 286 285 285 284 284 283 282 283 283 283 286 288 288 287 283 281 281 280 280 279 279 279 278 278 278 278 279 281 282 282 282 285 285 285 285 284 284 283 281 278 276 275 275 275 274 273 274 274 274 274 275 275 275 275 275 275 274 274 273 273 272 270 269 271 274 272 272 270 271 273 273 272 272 272 272 273 274 274 278 279 280 281 281
286 285 285 285 284 284 283 283 282 282 282 285 288 289 289 288 286 282 281 280 280 279 279 279 278 278 278 278 279 280 280 280 280 282 284 286 286 285 285 284 284 284 283 278 276 274 274 273 273 274 274 275 275 275 275 275 274 274 274 274 273 272 271 271 271 270 273 273 271 270 271 273 273 272 271 272 272 273 274 277 279 279 280 281 281
285 284 284 284 284 284 283 283 282 282 283 286 288 289 289 289 287 284 281 281 280 279 279 279 278 278 278 278 278 279 280 282 281 281 281 282 285 286 285 285 285 285 285 285 284 278 277 275 274 274 275 276 275 275 276 275 276 274 274 273 273 272 272 271 272 272 273 273 272 271 271 273 272 271 270 272 272 272 273 276 278 279 280 280 280
284 284 284 284 284 283 283 283 283 283 282 285 288 289 289 288 288 286 281 280 280 280 279 279 279 278 278 278 278 278 279 280 280 280 280 280 280 281 281 280 280 282 285 285 285 284 280 277 276 275 276 276 276 275 275 277 275 274 274 274 274 274 273 273 274 273 272 274 272 272 270 271 271 270 269 270 272 272 272 275 278 279 280 280 280
284 284 284 284 284 284 283 283 283 283 282 286 288 289 289 289 288 286 281 280 280 279 279 279 279 279 279 279 279 279 279 279 280 280 280 279 279 279 279 279 279 278 279 279 280 281 280 278 277 277 277 276 276 275 274 276 276 276 276 276 276 276 275 274 271 272 273 275 274 273 267 269 270 270 270 270 271 271 271 275 277 278 279 279 279
285 285 285 284 284 284 283 283 282 282 282 286 288 288 289 289 290 282 280 280 279 279 279 279 279 279 279 279 279 279 279 279 282 284 282 280 279 277 276 277 277 277 277 280 282 282 280 279 278 278 277 276 279 275 275 275 274 273 274 274 273 273 271 268 269 267 271 274 275 272 267 267 269 269 270 270 270 269 270 270 275 277 278 278 278
284 284 284 284 284 284 283 283 282 282 281 285 287 288 288 289 287 281 280 280 279 279 279 279 279 279 279 279 279 279 280 280 282 285 285 282 278 277 276 275 276 275 276 278 282 284 284 284 284 284 284 283 283 283 283 283 280 276 272 270 270 269 268 267 269 269 269 271 272 272 269 266 268 268 268 269 269 269 269 270 271 274 276 276 276
284 284 285 284 284 284 283 283 283 282 281 283 287 287 288 288 284 281 280 280 279 279 279 279 279 279 279 281 281 280 280 280 284 286 286 283 278 277 276 275 274 274 275 277 278 280 284 284 285 284 284 284 284 284 284 284 284 281 272 271 269 269 268 269 268 269 266 267 270 272 266 267 266 269 267 268 268 267 269 269 270 271 273 273 275
285 285 285 284 284 284 283 283 283 282 281 283 287 287 288 288 285 281 281 280 279 279 279 278 278 279 279 281 282 281 281 282 285 287 287 284 279 277 277 275 274 274 275 275 276 275 274 274 278 280 281 283 282 280 280 284 284 283 277 274 273 271 270 270 269 266 265 266 270 272 267 264 266 267 268 264 260 262 267 268 268 269 270 269 270
Wind_Speed
6 7 7 6 6 6 6 5 5 6 6 6 6 6 6 6 5 6 6 6 5 6 7 7 7 7 7 7 7 7 7 7 7 8 8 8 9 16 22 19 19 20 20 20 20 21 21 24 25 25 25 24 24 23 24 22 22 23 23 23 23 22 22 22 22 23 23 23 24 24 24 24 24 26 24 24 24 24 25 25 25 24 24 25 26
6 7 7 6 6 5 6 5 6 6 6 6 6 6 7 7 6 6 6 6 6 6 7 7 8 7 7 7 7 7 7 7 7 8 7 8 9 12 20 21 18 21 19 20 21 21 21 22 22 25 24 23 23 22 21 22 22 22 23 22 22 22 22 22 22 22 23 23 23 24 24 24 24 25 24 24 24 24 24 24 26 25 25 24 25
7 7 6 6 6 7 6 6 6 5 6 6 5 7 7 6 6 6 6 6 6 6 7 7 7 7 6 7 7 7 7 7 7 7 8 8 8 8 13 20 22 17 20 20 21 20 21 20 21 21 21 22 22 20 21 21 21 21 21 22 22 22 22 22 22 22 23 23 23 23 23 23 23 24 24 24 23 24 25 25 24 24 25 26 26
9 7 8 7 6 7 6 6 6 5 6 6 7 7 6 5 5 7 5 6 7 7 6 7 7 7 7 7 7 8 7 7 7 7 7 7 8 9 9 10 17 22 19 20 20 20 20 21 20 20 20 21 19 19 19 20 21 21 21 21 21 21 22 22 22 22 22 23 23 23 23 23 24 24 24 24 24 24 25 25 25 24 26 25 25
8 9 8 7 7 8 7 7 6 6 6 7 9 7 7 7 6 6 6 6 7 7 6 6 7 7 7 7 7 7 7 7 7 7 6 6 7 7 7 7 9 15 21 19 20 21 20 20 20 20 19 19 19 18 18 19 19 20 20 21 21 22 22 22 22 22 22 22 22 22 23 23 23 23 24 24 24 24 24 26 25 25 25 26 26
7 8 8 7 8 8 9 8 7 7 7 8 8 6 6 7 7 7 7 7 7 7 7 7 7 7 7 6 7 7 7 7 7 7 7 7 7 6 6 7 7 8 9 19 22 21 21 20 18 18 17 17 17 18 18 19 19 20 20 21 22 22 22 22 22 22 22 22 22 23 23 22 23 23 24 24 24 24 25 24 24 25 25 25 25
8 9 8 8 8 8 9 9 8 7 8 7 8 6 6 8 7 8 7 7 7 6 6 7 7 7 6 6 7 6 7 7 7 7 7 7 7 5 6 7 7 7 7 7 12 19 21 22 20 18 17 17 17 17 18 19 19 20 21 22 22 22 22 22 22 22 22 21 21 21 21 22 22 23 23 23 23 23 23 22 24 24 23 23 23
9 9 9 8 8 8 8 9 10 8 7 8 8 8 6 6 5 6 9 8 8 7 6 7 7 7 6 7 7 7 7 7 7 7 7 7 6 5 6 5 5 6 6 7 7 12 22 21 20 19 18 17 18 18 18 19 19 20 21 21 21 21 21 20 21 21 20 20 20 20 21 21 22 22 22 22 22 22 22 22 24 23 23 23 22
10 10 9 9 8 8 9 10 9 9 9 7 7 7 8 6 5 5 4 9 9 9 7 7 7 7 7 7 6 6 6 7 7 6 5 6 5 5 5 6 5 6 4 6 6 6 12 19 19 19 18 18 18 19 19 19 20 20 19 19 19 20 20 20 20 19 19 19 19 20 20 20 21 21 21 21 22 22 22 22 23 23 23 23 24
11 10 9 9 9 10 10 11 10 9 9 8 8 6 5 7 8 5 6 7 8 9 9 7 6 7 7 7 6 6 6 7 6 5 6 6 6 5 5 5 6 5 6 6 6 6 5 9 14 16 18 18 19 19 20 20 20 19 18 18 18 19 19 19 19 19 19 18 19 19 19 19 20 20 21 21 20 21 22 22 22 22 22 22 23
8 10 10 9 9 9 10 11 10 10 9 9 8 7 6 7 8 8 6 5 7 7 8 8 8 7 7 6 6 6 6 6 6 6 6 6 6 5 5 6 5 6 6 6 6 6 6 6 5 4 8 18 18 20 20 20 19 18 17 17 17 18 18 18 18 18 17 17 17 18 19 19 20 20 20 20 21 21 21 21 21 22 23 23 23
9 9 10 10 10 10 10 10 10 10 10 10 9 9 11 11 9 10 9 7 6 7 8 10 9 9 7 7 6 6 5 5 5 4 4 5 5 5 6 5 6 5 5 5 6 6 6 5 5 6 5 11 18 18 19 19 18 17 17 16 16 17 17 17 17 16 17 17 17 18 18 19 20 19 20 20 20 21 21 21 22 22 23 23 23
11 10 10 10 10 11 11 10 10 10 11 11 11 10 8 9 9 7 12 11 7 6 7 8 12 8 7 6 6 5 5 5 5 5 5 5 5 5 4 6 5 6 5 6 6 6 5 5 5 5 6 6 8 14 16 17 17 16 16 16 15 16 16 16 16 16 16 16 17 17 18 19 19 18 19 19 20 20 21 21 22 22 22 22 22
8 10 12 12 11 10 11 12 11 10 8 8 9 9 11 10 9 8 5 11 9 9 9 10 3 8 9 5 5 5 4 4 4 4 5 5 4 5 4 4 5 5 5 6 5 5 5 5 5 6 6 6 6 5 5 6 10 16 16 16 15 15 15 15 15 16 16 16 16 17 18 18 18 18 18 20 20 21 21 21 22 22 23 23 23
9 8 11 12 14 13 12 11 11 10 10 9 10 11 11 13 12 11 9 4 6 7 9 3 8 6 6 8 4 3 1 3 3 4 4 4 4 4 4 4 5 5 5 6 6 5 4 4 5 6 5 5 5 5 5 5 8 13 14 15 14 14 14 15 15 15 16 16 16 17 17 17 17 18 19 19 20 21 21 21 22 22 22 23 24
9 9 8 7 9 13 12 12 11 11 11 12 11 12 11 11 11 10 12 11 8 8 7 4 10 14 6 3 5 4 4 3 3 1 3 4 4 3 4 4 4 5 6 6 5 5 5 4 5 5 5 4 4 4 5 4 7 10 12 11 14 15 14 14 14 15 15 16 17 16 16 16 17 18 19 20 20 21 21 21 22 23 23 24 24
8 10 10 11 10 10 12 12 12 11 11 11 12 13 13 12 13 12 13 13 11 8 9 5 8 3 6 7 3 2 4 5 6 1 3 3 3 3 3 4 4 5 5 4 4 4 5 4 4 4 4 4 4 3 3 3 3 2 6 10 14 14 14 14 14 15 16 16 15 15 16 16 17 18 19 19 20 21 21 22 22 23 23 24 24
7 8 9 9 11 11 11 11 11 10 10 11 11 9 10 11 12 12 10 8 13 11 8 4 8 2 1 1 5 5 8 7 6 3 1 1 4 3 3 4 4 5 4 4 4 4 4 4 4 4 3 3 3 4 3 3 4 3 5 7 14 13 13 14 14 16 16 15 15 15 15 16 17 17 18 19 20 21 21 22 22 22 23 24 25
8 8 8 9 10 10 11 12 12 11 10 9 10 12 11 11 10 10 10 9 9 12 12 9 3 1 1 1 1 0 10 12 4 5 3 1 2 2 1 3 3 4 4 4 5 4 3 4 5 4 4 3 3 3 3 4 7 8 11 13 12 13 13 12 14 15 14 14 15 15 15 16 16 17 18 19 19 20 20 21 21 22 23 24 25
7 8 9 10 10 10 10 11 11 11 11 11 12 10 8 7 9 9 8 9 11 10 9 8 12 6 3 2 3 7 7 2 8 9 6 7 3 0 1 3 4 4 4 4 5 4 4 3 4 4 4 3 3 3 3 3 3 4 5 11 11 11 11 12 13 12 13 13 14 15 15 16 16 17 18 18 19 19 20 20 21 21 22 23 24
6 7 8 10 10 11 11 11 11 11 11 10 10 10 12 12 10 9 10 9 9 8 8 9 6 7 6 2 4 5 2 3 7 5 4 4 2 5 3 2 2 2 5 4 4 4 3 3 3 4 4 3 3 3 3 3 3 4 6 10 10 10 11 12 12 11 11 12 13 14 15 15 16 17 17 18 18 19 19 19 20 21 22 23 23
5 5 6 8 10 10 10 12 12 11 10 10 10 11 10 10 11 11 10 9 7 8 9 6 5 5 6 6 5 3 3 2 1 3 3 4 8 8 7 8 7 3 3 4 4 4 4 3 3 3 4 3 3 3 3 3 3 2 5 10 9 9 10 10 10 11 11 12 12 13 14 14 15 16 17 17 18 18 18 19 20 21 22 22 23
5 5 5 6 8 10 11 11 11 10 10 10 10 11 11 11 10 9 9 9 8 7 7 6 6 7 7 7 7 8 7 6 7 4 4 3 5 4 4 5 5 5 3 4 4 4 4 3 4 4 4 3 3 3 2 2 4 4 8 9 8 7 9 9 10 10 10 11 12 12 13 13 14 16 16 17 17 17 18 19 20 20 21 22 22
6 5 5 6 7 8 9 10 10 10 11 9 9 10 10 9 9 9 8 7 7 7 7 8 7 6 6 6 6 6 4 5 6 7 6 5 8 8 7 4 3 1 3 3 3 4 4 4 3 4 4 3 3 2 2 2 2 4 4 7 8 7 8 9 10 10 10 10 11 12 12 13 14 15 16 16 17 18 18 19 19 20 21 22 22
7 7 7 9 8 9 9 10 9 10 11 9 8 9 8 8 9 8 8 8 9 7 8 8 9 8 7 5 6 4 3 4 6 6 4 7 8 7 4 6 5 3 3 4 2 3 4 4 5 3 3 3 3 2 2 2 2 1 5 5 8 6 6 8 9 9 9 9 10 11 12 13 14 15 15 16 17 17 18 18 19 19 20 21 22
9 10 10 10 9 10 11 11 11 11 11 11 10 9 9 9 9 9 8 7 7 7 8 7 7 6 7 7 6 5 4 5 5 6 7 8 7 9 7 3 3 4 3 3 3 3 1 3 4 4 3 3 3 3 2 1 1 2 5 4 6 8 6 7 8 9 8 9 10 11 12 12 14 14 15 15 16 17 17 18 19 19 20 21 21
10 9 9 10 10 9 10 10 10 10 10 9 9 10 9 8 8 7 7 7 8 8 8 9 9 8 6 7 6 6 5 4 6 5 5 7 9 8 9 7 2 3 3 2 3 4 3 2 3 3 4 3 3 3 3 1 1 0 3 3 3 7 7 7 8 9 8 8 9 10 11 12 13 13 14 14 15 15 16 17 18 19 20 20 21
8 8 9 8 9 9 9 9 9 9 9 9 9 9 9 9 7 7 8 5 9 9 7 8 9 9 8 7 8 6 5 5 6 6 6 6 7 7 8 8 8 3 2 3 3 3 4 3 1 3 4 4 3 3 4 2 1 3 3 2 3 4 7 8 9 8 7 8 9 10 11 11 12 12 13 14 14 15 15 16 17 18 19 20 21
8 8 9 9 8 9 10 9 9 9 8 8 8 8 9 9 9 8 9 7 9 9 7 8 8 8 7 8 8 7 6 5 5 6 6 7 7 6 6 8 7 7 5 5 4 4 3 3 4 4 4 4 4 3 3 2 4 2 0 1 3 4 6 8 9 8 7 8 8 10 10 11 11 12 12 13 14 15 15 16 17 17 19 20 21
8 8 9 10 9 9 9 9 8 8 9 8 8 9 9 8 8 8 8 8 9 7 7 8 8 8 8 8 7 7 5 7 6 5 6 7 7 7 6 5 5 6 3 5 2 4 2 3 2 3 4 4 4 3 3 2 5 2 1 2 3 4 8 9 8 6 6 7 8 9 10 11 11 12 12 13 14 15 16 16 17 17 18 20 21
9 9 10 9 9 9 8 8 7 8 8 9 9 9 9 9 8 8 7 9 9 8 7 9 8 9 10 9 7 7 6 7 6 6 6 7 7 6 6 6 5 6 6 3 3 2 4 5 2 2 5 5 4 4 3 3 4 4 3 3 4 7 9 6 8 6 6 6 8 9 10 10 11 11 12 13 14 15 16 16 16 17 18 19 20
9 10 10 11 10 10 9 9 9 8 9 8 9 9 9 9 9 9 8 10 10 10 8 7 7 9 10 10 8 8 7 7 6 6 7 6 6 7 6 6 4 4 5 3 4 3 1 4 4 3 5 6 5 4 3 3 3 7 4 3 5 8 4 4 6 7 7 7 8 9 10 10 11 11 12 14 15 15 16 16 16 17 17 18 19
9 10 10 10 10 10 10 10 11 10 10 9 8 9 9 9 9 10 10 10 11 9 10 9 7 9 9 10 8 7 7 8 7 7 7 6 6 6 5 6 5 3 4 3 4 3 1 2 4 4 4 5 3 5 4 3 3 3 4 5 5 4 4 5 4 6 8 8 8 9 10 11 11 12 13 14 15 15 16 16 16 16 17 18 18
9 10 11 9 9 10 10 10 10 9 9 10 10 10 10 11 10 8 10 11 11 11 10 11 9 7 9 11 9 8 6 9 8 7 7 7 6 6 5 6 6 4 3 3 3 5 4 1 2 2 3 3 2 3 7 4 4 3 4 4 4 4 4 5 5 4 8 9 9 10 10 11 11 12 13 14 15 16 16 16 16 16 16 16 16
7 9 10 9 10 10 10 10 11 10 11 10 9 10 11 13 13 11 11 12 13 13 12 12 11 10 10 10 10 8 7 9 7 7 6 6 6 7 6 4 6 4 3 3 3 4 4 3 5 5 5 4 6 4 4 5 5 5 5 5 6 5 4 4 5 4 7 10 10 10 11 11 12 12 12 14 15 16 16 16 15 15 15 16 16
9 8 8 9 9 10 11 10 11 11 11 10 10 10 12 13 13 14 13 12 12 13 13 12 12 12 12 11 9 9 9 9 8 7 6 6 6 6 6 4 5 5 4 3 3 3 3 3 3 6 4 5 5 3 4 4 5 5 5 6 5 5 5 5 5 5 7 10 10 10 10 11 12 11 12 14 16 16 16 16 15 14 15 15 15
8 8 8 8 9 10 11 12 12 12 12 12 12 11 10 11 13 14 13 12 12 12 13 13 13 12 12 12 11 10 9 10 7 7 7 7 6 6 7 6 6 5 4 4 4 3 3 5 4 1 3 3 3 3 4 5 5 4 4 6 6 6 6 6 5 5 8 12 11 10 9 10 12 12 12 14 16 17 17 16 15 15 15 15 15
9 9 10 10 11 12 11 12 12 13 13 13 13 13 12 11 10 11 12 12 12 12 11 11 12 11 12 11 11 11 11 11 10 8 8 9 7 7 7 6 6 4 5 4 4 4 4 5 5 3 1 4 2 3 4 5 5 4 4 4 4 4 4 5 5 5 4 4 3 3 6 9 10 13 13 13 16 17 17 16 15 15 15 15 15
11 10 10 11 10 12 12 11 12 12 13 12 12 11 11 10 11 11 11 11 11 10 10 11 11 10 10 11 11 11 11 11 11 11 10 9 8 8 8 8 6 6 6 6 5 6 6 5 3 4 5 4 4 5 4 5 6 5 5 4 5 4 5 6 6 3 2 3 4 6 6 7 9 8 10 12 14 17 17 15 14 15 15 16 16
12 12 12 12 11 11 11 12 12 11 12 12 11 10 11 12 12 11 12 12 11 10 10 9 10 10 10 11 11 11 11 11 11 10 11 10 8 8 7 7 7 7 7 6 6 6 6 5 6 6 5 5 3 3 2 3 3 4 5 6 7 4 4 2 3 3 2 2 5 4 5 6 6 9 12 13 13 16 18 14 14 14 16 16 17
10 11 11 12 12 12 11 11 11 10 11 11 10 11 12 11 11 12 12 12 13 12 10 10 9 9 9 10 10 10 11 12 13 12 12 11 10 8 7 8 8 8 7 6 6 5 5 5 5 5 5 6 6 5 5 6 8 8 4 5 6 4 4 4 5 3 2 3 5 4 3 2 4 5 5 5 5 9 12 15 11 14 16 17 18
11 11 11 11 11 12 12 11 10 9 10 8 12 18 17 14 12 10 10 12 13 13 13 11 9 9 10 9 9 14 14 14 14 14 14 14 13 11 11 10 9 8 8 7 7 7 6 6 7 6 5 7 8 7 7 8 6 4 4 5 6 4 2 4 3 4 5 5 3 4 4 2 3 5 5 6 5 6 6 6 7 10 14 18 19
12 11 10 11 12 11 11 11 12 10 9 10 18 19 20 20 15 13 14 13 12 12 12 13 13 11 9 8 8 11 12 11 11 14 15 16 15 13 11 11 11 12 9 8 8 7 8 8 6 5 7 8 9 7 8 7 5 7 7 5 6 4 6 5 7 5 1 4 2 2 5 2 2 7 7 6 5 5 5 6 13 16 16 18 19
10 9 11 12 11 11 10 11 11 10 10 13 20 20 21 21 17 13 12 12 12 12 12 13 12 11 11 10 8 8 9 10 10 9 11 14 15 14 14 14 13 12 13 12 10 7 7 8 7 9 7 10 9 6 8 5 7 5 5 6 6 7 6 6 5 5 2 3 1 3 9 2 4 6 7 5 4 5 6 9 14 15 16 19 18
9 11 12 12 12 11 11 11 11 11 12 19 21 23 23 22 21 16 12 13 14 13 12 12 12 12 11 10 9 8 8 12 9 9 8 8 11 13 13 13 14 16 15 16 13 10 8 8 9 9 10 9 8 8 8 5 3 6 4 5 5 5 6 6 7 5 3 2 2 4 9 5 2 5 6 6 5 4 5 10 13 14 17 19 18
11 11 11 13 12 13 13 13 12 12 11 16 22 23 23 22 22 15 12 13 13 13 13 13 11 12 12 12 11 9 8 9 9 9 8 8 7 7 8 8 7 10 14 16 16 13 10 10 9 11 11 7 10 5 4 4 5 6 5 6 4 5 6 8 5 3 2 2 2 2 8 5 3 5 6 3 3 5 5 7 13 16 18 18 17
12 13 13 13 12 11 11 11 11 11 10 14 19 20 21 22 22 14 11 10 10 10 11 11 12 12 12 11 11 11 11 10 10 11 10 10 8 8 8 8 9 9 9 9 9 9 9 8 10 12 10 5 7 4 4 4 6 6 5 6 6 6 3 1 1 2 3 4 4 3 7 3 1 3 5 4 4 4 2 7 14 17 18 17 15
9 9 9 10 12 12 11 12 13 12 11 18 21 23 23 20 16 12 10 11 11 10 10 10 9 9 10 10 10 9 10 10 11 15 11 8 8 9 9 9 8 8 9 10 11 9 9 9 9 10 8 6 7 4 4 4 4 3 2 2 2 2 2 3 7 2 6 4 6 7 5 5 2 5 7 3 3 5 4 3 12 18 16 14 11
11 11 11 10 10 11 11 11 11 10 10 16 21 22 21 20 14 8 8 8 8 9 10 9 9 8 8 9 9 9 9 9 11 15 16 12 7 9 9 9 8 7 9 7 12 17 18 18 17 17 16 14 14 13 13 13 9 6 5 3 6 4 4 6 7 5 7 4 5 8 5 7 3 3 6 4 4 6 6 7 6 10 12 9 10
12 11 10 9 9 9 11 12 13 12 10 14 22 22 22 21 15 10 8 8 8 8 6 7 6 7 8 12 10 9 9 9 12 16 18 13 9 9 9 9 8 9 9 5 4 8 15 18 19 19 19 17 16 16 15 14 14 9 8 10 5 6 7 6 9 7 4 3 5 5 3 5 1 1 4 4 4 3 5 6 4 2 5 8 13
9 8 9 9 9 8 9 10 13 13 8 11 20 21 21 21 14 7 8 8 8 7 7 7 6 6 6 8 11 10 9 7 13 16 18 14 10 9 10 8 10 11 9 5 7 6 4 4 6 7 9 11 9 7 6 15 17 13 9 8 5 7 8 9 8 3 5 5 5 5 4 3 0 2 1 6 4 4 4 0 1 3 4 4 6
Wind_Direction
156 145 148 154 142 137 142 125 94 84 89 88 95 102 94 86 84 87 85 76 71 73 73 68 66 62 66 66 64 60 55 60 61 55 51 47 41 35 30 19 54 63 72 74 74 73 71 72 75 75 74 70 69 69 69 66 64 63 61 59 57 55 53 52 50 49 47 44 42 40 38 36 34 34 31 30 28 27 25 24 23 21 19 16 15
153 146 147 147 138 126 101 102 93 98 100 102 106 101 97 101 103 97 88 85 79 76 78 73 67 67 64 68 63 61 60 60 58 57 55 50 44 41 29 27 33 66 67 70 68 71 73 71 72 72 70 73 73 70 67 65 63 63 62 58 56 54 53 50 50 48 46 45 42 40 38 36 34 32 31 28 28 26 24 23 21 20 18 16 15
156 152 143 139 127 116 112 104 100 101 111 107 104 100 102 112 114 105 100 98 91 83 80 77 70 67 66 68 66 65 59 55 59 58 57 53 50 44 34 29 28 49 72 71 71 70 72 69 69 73 74 71 70 69 68 66 64 61 59 58 55 54 53 51 50 48 46 43 42 39 38 36 35 32 30 29 27 25 24 22 21 18 16 16 14
160 153 145 139 134 126 123 118 116 114 113 117 108 108 111 106 95 93 101 102 99 89 81 83 77 71 68 68 66 68 61 58 60 57 63 61 58 52 41 33 32 34 53 72 72 73 69 68 68 68 69 70 70 67 67 67 65 61 58 56 55 53 52 50 48 47 45 43 41 38 37 36 34 31 29 27 24 24 22 20 19 17 16 15 13
160 149 145 145 138 132 124 122 124 123 109 107 103 110 109 107 98 99 96 97 95 90 83 79 81 73 72 68 67 65 62 60 59 58 57 59 63 61 55 42 39 37 37 51 72 72 72 69 66 67 68 70 70 68 65 63 63 61 59 57 55 52 51 49 48 47 45 43 41 38 37 35 32 29 28 25 23 22 19 19 18 15 14 13 13
151 142 145 146 145 139 136 132 134 129 120 115 117 122 120 116 115 111 108 106 101 96 96 89 80 76 72 72 71 71 69 65 62 61 57 57 53 58 63 61 51 48 41 45 56 68 69 69 69 69 68 69 69 69 66 62 61 61 59 56 54 50 48 47 46 44 43 41 38 36 34 32 29 28 26 23 22 18 18 18 13 13 13 13 10
157 146 148 150 148 140 139 141 138 135 127 128 127 126 127 130 136 126 123 111 104 96 98 97 95 87 82 80 79 75 68 72 65 63 62 61 59 52 60 75 71 61 56 56 50 59 61 60 60 64 69 67 64 64 64 62 61 59 58 55 52 48 45 44 44 43 41 40 38 35 32 29 28 26 24 23 21 17 18 15 12 13 11 10 8
153 151 149 155 150 143 142 142 141 135 132 138 140 141 142 137 139 133 131 119 110 101 88 92 88 86 81 80 80 78 77 69 70 70 72 71 67 61 56 63 83 90 85 70 65 61 60 58 58 62 70 67 64 62 62 61 59 56 56 55 52 49 47 44 44 43 41 38 36 34 32 28 26 25 21 21 18 16 16 11 12 11 9 7 7
158 157 152 151 149 143 144 145 146 139 141 145 146 147 148 140 124 113 119 125 118 110 97 92 91 84 82 76 72 78 79 83 77 77 74 82 76 64 57 55 56 60 64 75 79 77 66 60 56 57 60 65 64 62 60 58 56 55 54 55 54 50 47 45 43 42 40 36 34 32 30 26 26 22 20 19 17 14 13 10 10 9 8 6 4
161 159 156 154 151 148 148 150 149 145 143 149 150 147 142 135 126 121 119 122 121 121 117 106 96 91 83 81 78 77 79 77 79 76 79 80 78 72 66 59 58 52 55 56 52 53 51 61 59 53 55 58 61 59 57 53 51 51 52 52 53 51 47 44 41 40 38 35 31 31 28 23 25 21 19 17 14 12 13 9 8 6 7 2 2
164 160 154 149 145 145 150 154 150 150 148 149 147 141 132 126 131 126 111 106 122 120 120 116 104 93 85 76 75 71 72 79 84 90 89 92 91 86 74 63 62 57 57 52 52 53 52 48 46 37 43 54 56 57 51 50 49 48 48 48 48 51 49 45 40 38 37 33 30 29 26 22 24 18 17 16 12 11 10 9 6 6 4 3 2
164 164 154 151 148 149 153 157 154 152 153 151 154 153 151 143 144 138 125 105 98 121 126 118 100 89 83 73 70 77 74 79 81 84 83 81 85 83 83 74 70 67 61 57 58 56 56 49 46 46 41 47 52 52 49 49 47 48 45 43 43 46 47 43 40 36 35 32 29 26 24 21 21 18 15 14 11 10 9 7 6 5 4 1 359
166 160 160 152 151 152 155 160 159 159 162 161 153 147 150 146 142 140 134 129 128 135 132 125 117 89 73 82 78 72 78 72 66 63 66 72 75 85 88 87 87 80 71 67 62 61 59 54 49 48 49 50 46 49 51 46 50 48 44 42 38 39 42 40 37 35 31 30 27 24 24 20 18 17 13 12 10 10 8 6 5 4 3 360 357
165 165 160 160 153 157 161 162 163 163 154 145 145 150 151 152 147 132 140 142 144 156 157 133 89 136 135 120 70 61 78 85 81 71 75 70 78 81 77 90 99 108 94 77 69 68 65 61 58 53 47 49 53 42 37 39 39 43 44 39 36 33 37 38 35 32 28 28 25 21 23 19 14 14 11 11 10 9 8 6 4 3 0 358 356
162 170 165 167 161 156 165 163 164 155 149 154 157 161 165 160 160 148 141 131 132 163 174 191 129 125 110 100 145 104 83 57 79 89 99 102 90 97 98 86 89 93 93 85 78 73 69 65 66 58 49 48 55 51 33 34 41 34 34 36 35 32 28 33 30 28 25 25 24 20 18 16 12 10 11 11 8 8 7 4 4 1 358 356 355
163 161 162 160 154 165 162 162 164 166 160 157 165 168 168 165 156 154 146 144 160 178 201 178 148 141 153 175 166 122 122 224 145 115 107 118 119 118 116 113 100 85 78 81 83 80 77 74 69 64 57 51 55 60 47 34 43 29 6 10 35 30 24 27 26 24 22 21 20 15 14 13 11 10 10 9 6 7 5 3 2 0 357 354 353
166 166 168 168 169 164 163 163 163 167 162 161 169 175 172 167 162 158 168 158 160 169 199 176 176 178 125 126 121 189 202 156 125 119 135 96 91 103 103 113 106 102 97 105 103 100 98 83 75 72 68 53 53 56 50 44 45 23 358 11 29 29 23 21 22 20 19 16 15 10 12 11 9 10 8 7 6 6 3 2 1 359 355 352 351
163 165 168 163 162 165 161 159 163 165 168 168 165 161 170 169 172 166 165 173 158 163 185 216 199 207 126 150 166 170 150 160 124 175 127 103 141 126 125 118 114 116 118 114 106 105 108 104 98 90 79 69 61 56 42 34 33 7 5 5 24 23 22 20 18 19 15 11 8 7 9 9 8 8 6 6 5 3 2 1 359 356 353 351 348
167 163 165 165 160 162 162 163 166 166 162 158 167 176 175 175 167 168 169 157 161 170 179 182 164 295 124 113 94 140 138 142 181 108 138 254 132 133 103 131 122 118 134 139 132 122 120 125 119 107 95 86 71 66 57 46 29 21 10 7 15 19 17 17 20 14 10 6 5 5 7 8 6 5 5 3 4 1 0 359 357 353 351 350 349
164 166 168 164 162 164 163 161 165 167 163 170 174 176 172 171 171 167 159 170 169 174 176 178 177 186 161 118 60 111 149 99 145 159 150 150 211 140 117 160 132 152 145 144 135 132 117 106 114 117 117 100 86 78 79 64 52 21 351 0 10 12 12 17 17 11 6 2 3 1 6 6 4 3 3 2 359 0 360 357 355 351 349 349 351
159 164 168 165 164 167 165 164 166 168 172 171 171 174 177 170 168 167 175 175 180 169 168 184 175 161 144 131 117 141 107 94 146 127 137 120 151 179 179 200 133 151 134 125 119 114 122 129 131 131 118 114 111 91 85 91 69 35 355 0 1 2 11 13 12 4 1 1 360 359 3 2 359 360 0 2 359 0 358 354 351 350 349 349 349
152 160 160 164 165 165 165 167 171 170 172 175 170 174 179 177 177 179 174 172 169 168 178 175 164 146 153 146 144 117 78 67 147 101 94 123 158 191 178 169 176 219 138 120 126 127 136 152 129 115 120 115 111 103 91 104 95 41 0 359 351 358 5 8 5 359 356 358 359 358 359 357 357 358 359 359 360 359 354 352 350 350 350 349 348
156 167 166 160 163 165 167 169 170 169 172 171 178 178 179 179 182 175 173 167 169 164 155 163 156 151 156 159 165 168 169 171 186 177 145 128 86 140 154 181 167 145 205 154 146 163 159 163 148 147 142 128 111 118 104 117 120 40 14 352 345 352 0 2 358 354 355 354 356 356 354 353 355 357 358 357 358 354 352 351 350 350 350 348 348
161 163 171 170 160 166 166 163 166 167 177 179 180 181 178 175 175 178 172 163 163 157 159 160 156 159 158 157 163 173 177 159 181 165 148 157 142 156 159 159 99 112 151 131 141 152 163 153 162 149 150 138 145 149 135 112 128 39 33 347 340 343 354 354 351 350 354 351 353 352 350 350 354 356 357 356 353 351 350 349 350 350 349 349 349
175 175 186 180 171 167 167 169 172 178 179 177 180 177 170 172 177 172 164 164 168 159 159 163 154 157 164 157 151 144 162 175 151 157 137 132 133 133 188 155 148 148 174 144 186 189 179 175 158 168 142 145 159 134 137 120 120 54 17 339 333 329 341 341 342 344 347 348 349 349 349 350 352 354 354 352 351 349 348 348 349 349 349 349 349
175 188 185 182 185 183 177 175 177 177 179 178 176 179 177 180 176 169 164 155 141 143 139 141 139 141 131 122 126 127 105 104 128 122 133 127 135 144 147 155 112 160 151 185 189 131 240 187 177 166 160 152 186 160 115 110 105 61 4 345 324 319 325 325 331 335 339 342 345 347 349 351 351 352 352 350 348 347 347 348 348 349 348 349 348
188 183 177 186 183 178 178 175 175 177 177 175 172 175 180 173 169 157 146 139 129 130 134 134 134 129 119 126 122 100 97 90 101 99 111 133 145 150 142 141 109 105 162 181 197 204 176 218 186 181 174 177 180 162 140 128 169 144 11 347 314 313 313 312 321 328 332 338 343 346 348 350 350 349 348 348 345 345 346 347 349 348 347 346 344
186 170 180 181 183 180 179 180 174 173 176 172 168 166 165 161 150 145 142 139 130 131 139 129 131 130 125 123 107 103 94 94 93 101 94 108 123 136 138 145 149 172 154 172 186 254 151 148 233 207 181 177 194 162 173 167 152 134 24 359 315 312 302 298 311 319 327 334 339 343 345 347 346 343 344 344 343 343 344 346 347 346 344 343 341
178 176 175 182 183 180 179 178 176 174 171 166 162 160 154 151 152 146 142 141 132 140 140 132 134 127 124 125 123 120 111 104 95 97 104 96 100 109 131 150 158 136 160 187 218 190 224 177 158 231 182 179 181 188 175 188 151 135 129 324 287 285 285 294 307 311 321 329 336 338 342 340 340 339 340 341 341 341 343 345 345 343 342 341 338
173 173 173 179 180 177 176 175 174 171 171 161 157 153 148 148 150 148 145 139 131 129 137 133 132 124 121 118 123 119 124 110 116 116 106 109 102 107 107 116 130 142 154 155 192 178 184 221 155 176 192 199 177 197 167 184 169 157 165 251 270 265 277 294 298 301 313 321 328 332 333 333 332 335 337 339 339 340 341 342 341 340 341 339 335
166 167 172 177 175 174 171 167 163 163 160 161 158 154 149 143 145 142 146 137 134 136 143 135 138 130 131 128 129 126 131 125 119 108 103 102 109 108 104 99 96 126 129 128 129 233 144 185 226 155 163 191 185 185 193 184 185 178 197 235 252 262 278 283 285 294 300 308 314 320 323 325 326 330 335 337 338 338 337 338 337 338 339 336 333
169 166 170 175 173 169 166 162 161 157 158 159 158 153 148 148 147 145 153 141 139 142 144 140 139 138 136 136 142 140 142 127 119 113 108 104 112 112 116 112 108 114 122 118 138 184 163 172 164 157 156 156 177 186 216 214 199 193 212 234 241 251 267 258 276 285 290 296 303 311 317 319 324 329 333 334 335 333 333 332 333 337 335 333 332
162 167 171 173 170 168 163 164 162 161 159 159 159 153 150 150 151 150 150 148 143 147 143 142 140 139 139 138 144 146 145 130 129 122 118 121 113 112 116 113 114 120 119 123 147 193 51 110 137 167 172 141 189 190 206 203 215 229 220 225 232 239 245 250 253 273 285 287 295 304 311 318 324 330 332 335 333 331 328 329 333 332 332 333 335
168 170 174 172 170 165 164 164 162 162 163 162 161 157 155 153 154 156 154 151 148 150 148 147 149 145 143 141 146 147 149 133 134 133 139 131 129 127 133 134 141 156 154 126 158 152 201 145 99 115 160 162 188 201 183 196 222 215 228 244 249 232 238 249 249 256 278 281 285 294 307 318 324 328 331 333 331 328 326 327 328 328 329 334 335
175 174 172 171 171 167 168 168 164 164 167 166 168 165 164 162 159 162 161 158 156 155 155 154 153 149 145 148 150 146 142 130 134 138 137 139 139 140 154 147 147 162 149 132 136 175 172 227 172 169 182 199 187 221 184 188 201 207 223 244 244 245 233 221 233 248 257 272 278 288 302 314 321 322 324 327 327 325 323 323 324 324 326 330 333
176 176 168 171 174 171 167 169 169 167 167 170 172 174 170 168 165 164 165 164 161 159 156 156 157 156 153 148 156 152 144 135 140 141 146 147 148 152 153 162 150 160 170 137 135 154 164 189 220 181 194 179 234 206 179 184 198 228 220 236 238 235 229 229 228 231 248 260 277 281 287 302 310 313 317 321 323 322 321 321 322 321 324 327 330
177 168 170 169 174 177 176 174 172 172 173 172 175 176 177 178 172 165 164 162 162 161 160 161 161 158 158 158 158 154 146 139 145 146 157 157 161 155 160 163 163 161 147 155 168 139 166 207 235 226 161 191 196 185 165 188 250 235 233 227 233 235 237 228 220 232 232 257 270 278 279 286 297 304 309 315 317 317 318 319 320 324 324 325 326
175 178 173 176 180 183 183 180 177 176 173 175 179 179 176 175 171 165 160 160 162 160 161 162 163 162 159 158 159 156 152 152 159 159 162 165 162 163 164 165 165 153 155 160 161 180 185 213 197 252 245 189 271 216 204 201 208 242 263 264 268 249 230 244 239 230 232 224 233 267 276 276 279 287 295 302 309 313 315 316 321 325 323 323 321
179 180 182 181 187 185 186 181 180 176 175 176 178 178 174 167 165 164 160 159 159 158 162 164 165 162 159 157 159 160 160 161 161 167 167 167 171 173 171 169 168 161 169 177 172 184 202 210 224 206 227 252 195 241 248 196 209 201 218 272 277 254 233 215 247 264 208 229 251 257 262 242 234 239 265 285 299 306 308 309 319 321 322 319 317
185 186 184 187 187 188 187 185 183 177 174 174 176 172 166 171 169 166 162 159 157 156 160 163 163 163 161 161 162 166 167 168 167 168 166 170 167 171 175 167 170 169 176 177 181 191 202 206 205 225 233 225 262 234 201 166 216 259 221 213 251 260 257 244 205 212 273 252 268 271 276 294 302 289 285 285 289 296 301 304 307 313 316 314 313
188 188 186 186 186 191 188 185 180 178 175 175 173 170 170 171 171 167 164 161 157 156 160 163 164 162 161 165 167 170 171 171 171 170 175 168 164 171 182 174 174 175 175 180 189 192 206 194 226 227 219 234 232 214 226 207 214 225 221 205 239 228 211 251 278 282 224 229 255 247 248 220 261 254 251 265 258 274 288 292 296 302 299 307 315
188 186 187 187 189 192 185 182 180 175 178 174 176 174 174 171 172 167 162 162 163 164 163 162 164 170 170 167 172 170 170 172 171 173 175 176 178 176 174 176 176 174 179 182 192 200 189 195 216 207 223 233 227 219 218 226 218 220 208 203 222 243 253 277 283 234 231 243 268 272 262 243 260 274 253 261 263 263 259 272 275 280 294 309 317
189 187 184 185 189 190 187 181 180 180 176 180 181 182 178 175 169 168 168 168 165 164 165 166 168 172 174 171 164 172 172 175 179 179 179 182 185 184 179 180 179 174 176 185 204 193 188 205 210 203 215 233 235 212 223 224 211 199 208 205 221 216 225 240 266 304 10 123 302 290 274 215 269 275 270 252 256 259 257 259 269 283 295 309 314
190 182 185 189 187 185 187 187 183 179 178 181 184 185 182 178 176 172 167 162 167 171 172 173 172 169 169 168 169 169 176 180 179 185 187 188 190 190 187 187 185 184 181 181 191 191 195 201 211 216 209 230 234 203 227 212 220 218 215 208 207 207 225 233 240 246 205 125 151 296 283 189 229 257 272 256 245 253 256 263 279 289 299 306 310
175 183 189 184 189 188 185 182 186 185 189 190 186 185 184 181 177 171 168 168 169 175 175 174 171 169 167 167 167 174 184 180 177 186 188 194 199 197 194 191 193 195 200 204 197 190 186 198 210 223 213 224 234 227 210 204 180 208 215 221 211 213 213 224 234 228 220 132 61 281 281 274 201 262 266 265 254 254 277 288 287 290 297 302 307
183 185 185 190 188 188 185 182 186 196 200 189 188 187 185 181 177 169 172 171 173 173 174 173 171 171 170 169 170 178 178 177 184 183 187 191 193 196 203 205 205 209 210 215 216 203 188 201 206 224 232 197 230 228 199 187 189 217 204 226 200 212 216 231 222 194 203 121 165 300 282 276 208 246 258 255 252 274 263 276 289 296 298 300 304
186 189 188 186 190 189 186 181 183 192 204 193 188 186 187 184 179 166 170 168 169 171 174 174 173 172 174 173 175 179 177 180 186 184 181 188 186 196 205 213 215 215 216 221 217 211 207 212 217 232 241 212 234 223 191 204 201 209 201 211 204 214 213 14 3 202 237 202 196 224 260 288 173 288 267 264 263 259 260 291 289 290 292 298 297
188 186 193 193 189 187 184 182 184 194 187 185 187 188 188 184 163 172 165 169 168 170 172 174 172 173 173 174 174 176 178 184 188 186 184 175 179 190 204 216 220 222 226 223 221 215 215 218 224 230 236 220 220 209 197 199 198 161 143 81 97 126 198 266 256 262 251 215 198 205 255 267 178 256 280 275 282 278 273 258 279 285 290 288 295
184 190 191 189 185 183 185 184 183 190 195 191 186 186 185 177 165 170 166 164 169 168 173 172 172 169 173 175 176 174 175 188 187 188 193 176 184 191 205 215 219 222 235 229 224 225 227 229 232 237 239 238 238 236 230 218 192 169 144 163 213 164 178 241 260 239 246 194 225 197 225 270 227 222 287 272 266 280 276 265 261 278 283 290 317
189 191 186 187 191 191 187 188 188 185 189 186 183 184 182 179 172 167 166 163 167 167 163 166 163 170 178 177 177 175 179 190 182 191 193 183 191 198 205 215 222 228 239 214 214 227 231 234 235 237 240 242 243 240 238 234 223 176 165 212 204 155 218 222 249 240 269 219 214 185 199 240 288 307 302 283 292 255 249 258 254 300 338 337 326
186 180 186 186 190 193 195 194 190 186 175 179 180 182 181 179 171 163 161 159 160 169 166 167 164 166 174 180 183 184 189 184 188 191 192 185 195 197 206 207 225 233 231 177 210 224 230 233 240 234 242 240 240 234 235 239 238 229 193 210 166 185 218 228 238 272 297 261 219 189 217 280 63 290 342 327 314 268 252 134 42 342 338 331 302